Location: Peebles
(55.6412°N, 3.1714°W)
Time: 17:26:58
(UTC+01:00)

Cosmos 1934 Rocket - Pass Details

Date: 05 February 2022
Orbit: 938 x 999 km, 83.0° (Epoch: 25 May)

Event Time Altitude Azimuth Distance (km) Brightness Sun altitude
Rises 05:18:35 0° 152° (SSE) 3,674 7.3 -22.7°
Reaches altitude 10° 05:21:23 10° 143° (SE) 2,721 6.7 -22.3°
Maximum altitude 05:26:41 31° 84° (E) 1,647 5.9 -21.5°
Drops below altitude 10° 05:31:57 10° 25° (NNE) 2,700 6.6 -20.8°
Sets 05:34:42 0° 16° (NNE) 3,642 7.2 -20.4°
